User: anonymous   Login
Location: ?
(35.4214°N, 139.3011°E)
Time: 19:52:38
(UTC+00:00)
Language:

Meteor 2-17 Rocket - Orbit

View from above orbital plane
View from above orbital plane
View from above satellite
View from above satellite

Ground track
Ground track

The orbit data is extracted from the following two-line orbital elements,

1 18821U 88005B   21136.54989793  .00000019  00000-0  35952-5 0  9997
2 18821  82.5443   4.3807 0013080 276.8083  83.1589 13.85123315682862
Epoch (UTC): 16 May 2021 13:11:51
Eccentricity: 0.0013080
inclination: 82.5443°
perigee height: 936 km
apogee height: 955 km
right ascension of ascending node: 4.3807°
argument of perigee: 276.8083°
revolutions per day: 13.85123315
mean anomaly at epoch: 83.1589°
orbit number at epoch: 68286

The dashed part of the orbit path shows where the satellite is in the earth's shadow,  

DLR